Change the Weather History Date:

Saturday, January 11, 2014

  Actual Average Record
Temperature  
Mean Temperature 32 °F -  
Max Temperature 44 °F 23 °F 44 °F (2014)
Min Temperature 19 °F 6 °F -11 °F (1999)
Degree Days  
Heating Degree Days 34    
Moisture  
Dew Point 35 °F    
Average Humidity 95    
Maximum Humidity 100    
Minimum Humidity 84    
Precipitation  
Precipitation 0.20 in 0.09 in - ()
Sea Level Pressure  
Sea Level Pressure 29.48 in    
Wind  
Wind Speed 9 mph ()    
Max Wind Speed 31 mph    
Max Gust Speed 37 mph    
Visibility 3.7 miles    
Events Fog , Rain , Snow    
Averages and records for this station are not official NWS values.
T = Trace of Precipitation, MM = Missing Value Source: Averaged Metar Reports

Daily Weather History Graph

Daily Weather History Graph

Search for Another Location

Airport or City:

Trip Planner

Search our weather history database for the weather conditions in past years. The results will help you decide how hot, cold, wet, or windy it might be!

Date:

Astronomy

Jan. 11, 2014 Rise Set
Actual Time 7:31 AM EST 4:31 PM EST
Civil Twilight 6:58 AM EST 5:05 PM EST
Nautical Twilight 6:21 AM EST 5:42 PM EST
Astronomical Twilight 5:45 AM EST 6:17 PM EST
Moon 1:16 PM EST (1/11) 3:31 AM EST (1/11)
Length of Visible Light 10h 06m
Length of Day
8h 59m
Waxing Gibbous, 83% of the Moon is Illuminated
Jan 11
Waxing Gibbous
Jan 15
Full
Jan 24
Last Quarter
Jan 30
New
Feb 6
First Quarter

Hourly Weather History & Observations

Time (EST) Temp. Windchill Dew Point Humidity Pressure Visibility Wind Dir Wind Speed Gust Speed Precip Events Conditions
12:00 AM 21.2 °F 14.9 °F 17.6 °F 86% 30.16 in 6.0 mi NNW 4.6 mph - N/A   Overcast
1:00 AM 21 °F - 18 °F 84% 30.12 in 6 mi NNE 6.9 mph - -   Mist
1:00 AM 21.2 °F 13.6 °F 17.6 °F 86% 30.11 in 6.0 mi NNE 5.8 mph - N/A   Overcast
2:00 AM 23.0 °F 15.8 °F 19.4 °F 86% 30.09 in 6.0 mi North 5.8 mph - N/A   Overcast
2:47 AM 21.2 °F 12.6 °F 19.4 °F 93% 30.05 in 5.0 mi NNE 6.9 mph - N/A   Mostly Cloudy
3:00 AM 21.2 °F 12.6 °F 19.4 °F 93% 30.04 in 5.0 mi NNE 6.9 mph - N/A   Overcast
4:00 AM 23.0 °F 14.7 °F 19.4 °F 86% 29.99 in 5.0 mi North 6.9 mph - N/A   Overcast
4:43 AM 23.0 °F 13.9 °F 21.2 °F 93% 29.94 in 6.0 mi NNE 8.1 mph - N/A   Overcast
5:00 AM 23.0 °F 13.1 °F 21.2 °F 93% 29.93 in 6.0 mi North 9.2 mph - N/A   Overcast
5:12 AM 23.0 °F 12.4 °F 21.2 °F 93% 29.91 in 5.0 mi North 10.4 mph - N/A   Overcast
5:14 AM 23.0 °F 11.7 °F 21.2 °F 93% 29.91 in 5.0 mi North 11.5 mph - N/A Snow Light Snow
5:19 AM 23.0 °F 11.1 °F 21.2 °F 93% 29.90 in 3.0 mi North 12.7 mph - N/A Snow Light Snow
5:22 AM 23.0 °F 11.7 °F 21.2 °F 93% 29.89 in 2.5 mi North 11.5 mph - N/A Snow Light Snow
5:27 AM 23.0 °F 11.7 °F 21.2 °F 93% 29.89 in 2.0 mi NNE 11.5 mph - N/A Rain , Snow Light Snow
5:28 AM 23.0 °F 12.4 °F 21.2 °F 93% 29.88 in 1.8 mi NNE 10.4 mph - N/A Rain , Snow Light Snow
5:32 AM 23.0 °F 11.7 °F 21.2 °F 93% 29.88 in 1.8 mi North 11.5 mph - N/A Rain Light Freezing Rain
5:46 AM 24.8 °F 14.6 °F 23.0 °F 93% 29.87 in 1.2 mi NNE 10.4 mph - N/A Rain , Snow Light Snow
5:48 AM 24.8 °F 14.6 °F 24.8 °F 100% 29.87 in 1.2 mi NNE 10.4 mph - N/A Rain , Snow Light Snow
5:49 AM 24.8 °F 14.6 °F 24.8 °F 100% 29.87 in 1.2 mi NNE 10.4 mph - N/A Snow Light Snow
6:00 AM 26.6 °F 17.5 °F 24.8 °F 93% 29.86 in 1.2 mi North 9.2 mph - N/A Snow Light Snow
6:10 AM 26.6 °F 17.5 °F 24.8 °F 93% 29.85 in 1.2 mi North 9.2 mph - N/A Snow Light Snow
6:15 AM 26.6 °F 17.5 °F 26.6 °F 100% 29.85 in 1.2 mi NNE 9.2 mph - N/A Snow Light Snow
6:42 AM 28.4 °F 20.4 °F 26.6 °F 93% 29.81 in 1.8 mi NNE 8.1 mph - N/A Rain , Snow Light Snow
6:47 AM 28.4 °F 19.7 °F 26.6 °F 93% 29.81 in 2.0 mi NNE 9.2 mph - N/A Rain , Snow Light Snow
6:49 AM 28.4 °F 19.7 °F 26.6 °F 93% 29.81 in 2.0 mi NNE 9.2 mph - N/A Rain Light Freezing Rain
6:55 AM 28.4 °F 20.4 °F 28.4 °F 100% 29.80 in 2.0 mi NE 8.1 mph - N/A Rain Light Freezing Rain
7:00 AM 29 °F - 28 °F 93% 29.80 in 2 mi NE 6.9 mph - -   Light Freezing Rain
7:00 AM 28.4 °F 21.2 °F 28.4 °F 100% 29.79 in 2.0 mi NE 6.9 mph - N/A Rain Light Freezing Rain
7:03 AM 28.4 °F 20.4 °F 28.4 °F 100% 29.78 in 2.0 mi NE 8.1 mph - N/A Rain Light Freezing Rain
7:05 AM 28.4 °F 21.2 °F 28.4 °F 100% 29.78 in 2.0 mi NE 6.9 mph - N/A Rain , Snow Light Snow
7:07 AM 28.4 °F 21.2 °F 28.4 °F 100% 29.78 in 1.8 mi NE 6.9 mph - N/A Rain , Snow Light Snow
7:09 AM 28.4 °F 22.2 °F 28.4 °F 100% 29.78 in 1.8 mi NE 5.8 mph - N/A Rain , Snow Light Snow
7:10 AM 28.4 °F 22.2 °F 28.4 °F 100% 29.77 in 1.5 mi NE 5.8 mph - N/A Snow Light Snow
7:25 AM 30.2 °F 25.4 °F 28.4 °F 93% 29.76 in 1.5 mi ENE 4.6 mph - N/A   Overcast
7:40 AM 30.2 °F 22.6 °F 28.4 °F 93% 29.73 in 1.5 mi East 8.1 mph - N/A   Overcast
7:46 AM 30.2 °F 23.4 °F 30.2 °F 100% 29.73 in 2.0 mi East 6.9 mph - N/A   Overcast
7:53 AM 30.2 °F 24.3 °F 30.2 °F 100% 29.73 in 3.0 mi East 5.8 mph - N/A   Overcast
8:00 AM 30.2 °F 25.4 °F 28.4 °F 93% 29.72 in 3.0 mi East 4.6 mph - N/A   Overcast
8:43 AM 32.0 °F 27.5 °F 30.2 °F 93% 29.68 in 3.0 mi East 4.6 mph - N/A   Overcast
8:49 AM 32.0 °F 27.5 °F 30.2 °F 93% 29.67 in 3.0 mi East 4.6 mph - N/A Snow Light Snow
8:56 AM 32.0 °F 27.5 °F 32.0 °F 100% 29.66 in 3.0 mi East 4.6 mph - N/A Rain , Snow Light Snow
8:58 AM 32.0 °F 27.5 °F 32.0 °F 100% 29.66 in 3.0 mi East 4.6 mph - N/A Rain Light Rain
9:00 AM 33.8 °F 30.8 °F 32.0 °F 93% 29.66 in 3.0 mi East 3.5 mph - N/A Rain Light Rain
9:11 AM 35.6 °F 28.6 °F 35.6 °F 100% 29.66 in 6.0 mi SSE 9.2 mph - N/A Rain Light Rain
9:13 AM 37.4 °F 30.8 °F 35.6 °F 93% 29.66 in 7.0 mi SSE 9.2 mph - N/A   Overcast
9:55 AM 41.0 °F 31.6 °F 37.4 °F 87% 29.61 in 9.0 mi South 20.7 mph 26.5 mph N/A   Overcast
10:00 AM 41.0 °F 32.2 °F 37.4 °F 87% 29.61 in 9.0 mi South 18.4 mph 27.6 mph N/A   Overcast
11:00 AM 42.8 °F 34.0 °F 39.2 °F 87% 29.55 in 9.0 mi South 20.7 mph 29.9 mph N/A   Overcast
11:14 AM 41.0 °F 32.5 °F 39.2 °F 93% 29.54 in 9.0 mi South 17.3 mph 23.0 mph N/A Rain Light Rain
11:24 AM 42.8 °F 34.8 °F 39.2 °F 87% 29.52 in 9.0 mi South 17.3 mph 26.5 mph N/A   Overcast
11:49 AM 42.8 °F 34.8 °F 39.2 °F 87% 29.48 in 9.0 mi South 17.3 mph 26.5 mph N/A Rain Light Rain
12:00 PM 42.8 °F 34.5 °F 41.0 °F 93% 29.47 in 9.0 mi South 18.4 mph 32.2 mph N/A   Overcast
12:14 PM 42.8 °F 34.8 °F 39.2 °F 87% 29.47 in 9.0 mi South 17.3 mph 26.5 mph N/A Rain Light Rain
12:18 PM 42.8 °F 34.8 °F 39.2 °F 87% 29.47 in 5.0 mi South 17.3 mph 26.5 mph N/A Rain Light Rain
1:00 PM 42 °F - 40 °F 92% 29.43 in 4 mi South 12.7 mph - - Rain Rain
1:00 PM 42.8 °F 35.4 °F 41.0 °F 93% 29.43 in 4.0 mi South 15.0 mph - N/A Rain Rain
1:13 PM 42.8 °F 36.2 °F 41.0 °F 93% 29.41 in 6.0 mi South 12.7 mph 20.7 mph N/A Rain Light Rain
1:41 PM 42.8 °F 36.6 °F 41.0 °F 93% 29.39 in 9.0 mi South 11.5 mph 19.6 mph N/A Rain Light Rain
1:46 PM 42.8 °F 36.6 °F 41.0 °F 93% 29.38 in 7.0 mi South 11.5 mph - N/A Rain Light Rain
1:47 PM 42.8 °F 36.6 °F 41.0 °F 93% 29.38 in 7.0 mi South 11.5 mph - N/A Rain Light Rain
2:00 PM 42.8 °F 36.2 °F 41.0 °F 93% 29.37 in 7.0 mi South 12.7 mph - N/A Rain Light Rain
2:02 PM 42.8 °F 36.2 °F 41.0 °F 93% 29.37 in 8.0 mi South 12.7 mph - N/A Rain Light Rain
2:35 PM 42.8 °F 36.6 °F 41.0 °F 93% 29.34 in 5.0 mi South 11.5 mph - N/A Rain Light Rain
2:58 PM 41.0 °F 37.1 °F 41.0 °F 100% 29.32 in 2.5 mi SSE 5.8 mph - N/A Rain Light Rain
3:00 PM 41.0 °F 37.1 °F 41.0 °F 100% 29.32 in 2.0 mi SSE 5.8 mph - N/A Rain Light Rain
3:09 PM 42.8 °F 37.0 °F 41.0 °F 93% 29.32 in 3.0 mi South 10.4 mph - N/A Rain Light Rain
3:23 PM 41.0 °F 37.1 °F 41.0 °F 100% 29.31 in 2.5 mi SE 5.8 mph - N/A Rain Light Rain
3:24 PM 41.0 °F 37.1 °F 41.0 °F 100% 29.31 in 1.8 mi SE 5.8 mph - N/A Rain Light Rain
3:53 PM 41.0 °F 34.3 °F 41.0 °F 100% 29.27 in 1.0 mi SE 11.5 mph - N/A Rain Light Rain
4:00 PM 41.0 °F 33.5 °F 41.0 °F 100% 29.25 in 1.0 mi SE 13.8 mph - N/A Rain Light Rain
4:02 PM 41.0 °F 33.1 °F 41.0 °F 100% 29.25 in 1.0 mi SE 15.0 mph - N/A Rain Light Rain
4:03 PM 41.0 °F 33.1 °F 41.0 °F 100% 29.25 in 1.0 mi SE 15.0 mph - N/A Rain Light Rain
4:04 PM 42.8 °F 35.4 °F 41.0 °F 93% 29.25 in 1.0 mi SE 15.0 mph - N/A Rain Light Rain
4:14 PM 42.8 °F 37.0 °F 42.8 °F 100% 29.25 in 2.0 mi SSE 10.4 mph 17.3 mph N/A Rain Light Rain
4:25 PM 42.8 °F 37.0 °F 42.8 °F 100% 29.24 in 1.8 mi SSE 10.4 mph - N/A Rain Light Rain
4:31 PM 42.8 °F 37.0 °F 42.8 °F 100% 29.23 in 1.8 mi SSE 10.4 mph - N/A Rain Light Rain
4:50 PM 42.8 °F 39.3 °F 41.0 °F 93% 29.23 in 0.8 mi SSE 5.8 mph - N/A   Overcast
5:00 PM 42.8 °F 39.3 °F 41.0 °F 93% 29.23 in 0.8 mi South 5.8 mph - N/A   Overcast
5:18 PM 42.8 °F - 41.0 °F 93% 29.21 in 0.4 mi SSW 2.3 mph - N/A Fog Fog
5:26 PM 42.8 °F 39.3 °F 41.0 °F 93% 29.21 in 0.4 mi South 5.8 mph - N/A Fog Fog
5:31 PM 42.8 °F 38.0 °F 42.8 °F 100% 29.21 in 0.5 mi SSW 8.1 mph - N/A Fog Fog
5:35 PM 44.6 °F 39.7 °F 42.8 °F 93% 29.21 in 1.0 mi South 9.2 mph - N/A   Overcast
5:38 PM 44.6 °F 39.7 °F 44.6 °F 100% 29.21 in 2.5 mi South 9.2 mph - N/A   Overcast
5:39 PM 44.6 °F 39.7 °F 44.6 °F 100% 29.21 in 3.0 mi South 9.2 mph - N/A   Overcast
5:44 PM 44.6 °F 40.2 °F 42.8 °F 93% 29.21 in 2.5 mi South 8.1 mph - N/A   Overcast
5:47 PM 44.6 °F 40.2 °F 42.8 °F 93% 29.21 in 1.8 mi South 8.1 mph - N/A   Overcast
6:00 PM 42.8 °F 39.3 °F 42.8 °F 100% 29.19 in 0.5 mi SSE 5.8 mph - N/A Fog Fog
6:01 PM 42.8 °F 38.6 °F 42.8 °F 100% 29.18 in 0.4 mi SSE 6.9 mph - N/A Fog Fog
7:00 PM 43 °F - 42 °F 96% 29.13 in 0 mi SSE 9.2 mph - - Fog Fog
7:00 PM 42.8 °F 37.5 °F 42.8 °F 100% 29.13 in 0.2 mi SSE 9.2 mph - N/A Fog Fog
7:08 PM 42.8 °F 36.6 °F 42.8 °F 100% 29.13 in 0.5 mi South 11.5 mph - N/A Fog Fog
7:39 PM 44.6 °F 39.2 °F 44.6 °F 100% 29.13 in 2.0 mi South 10.4 mph - N/A   Overcast
7:45 PM 44.6 °F 39.7 °F 42.8 °F 93% 29.12 in 1.8 mi South 9.2 mph - N/A   Overcast
8:00 PM 42.8 °F 37.0 °F 42.8 °F 100% 29.11 in 1.5 mi South 10.4 mph - N/A   Overcast
8:02 PM 42.8 °F 37.0 °F 42.8 °F 100% 29.11 in 1.5 mi South 10.4 mph - N/A   Overcast
8:06 PM 42.8 °F 36.6 °F 42.8 °F 100% 29.11 in 2.5 mi South 11.5 mph - N/A   Overcast
8:11 PM 42.8 °F 37.5 °F 42.8 °F 100% 29.11 in 3.0 mi South 9.2 mph - N/A   Overcast
8:32 PM 42.8 °F 37.0 °F 42.8 °F 100% 29.09 in 6.0 mi South 10.4 mph - N/A   Overcast
8:47 PM 42.8 °F 37.5 °F 42.8 °F 100% 29.08 in 6.0 mi SSW 9.2 mph - N/A Rain Light Rain
8:50 PM 42.8 °F 37.0 °F 42.8 °F 100% 29.08 in 5.0 mi South 10.4 mph - N/A Rain Light Rain
9:00 PM 42.8 °F 36.6 °F 42.8 °F 100% 29.08 in 4.0 mi South 11.5 mph - N/A Rain Light Rain
9:03 PM 42.8 °F 36.2 °F 42.8 °F 100% 29.08 in 2.5 mi SSW 12.7 mph - N/A Rain Light Rain
9:11 PM 44.6 °F 36.9 °F 42.8 °F 93% 29.09 in 1.8 mi SW 18.4 mph 24.2 mph N/A Rain Light Rain
9:24 PM 44.6 °F 37.4 °F 44.6 °F 100% 29.09 in 2.0 mi SW 16.1 mph 24.2 mph N/A Rain Light Rain
9:27 PM 44.6 °F 36.6 °F 44.6 °F 100% 29.08 in 3.0 mi SW 19.6 mph 26.5 mph N/A Rain Light Rain
9:28 PM 44.6 °F 36.4 °F 44.6 °F 100% 29.08 in 3.0 mi SW 20.7 mph - N/A Rain Light Rain
9:31 PM 44.6 °F 35.9 °F 44.6 °F 100% 29.09 in 7.0 mi SW 23.0 mph - N/A Rain Light Rain
9:54 PM 44.6 °F 35.9 °F 42.8 °F 93% 29.11 in 9.0 mi WSW 23.0 mph 33.4 mph N/A Rain Light Rain
10:00 PM 44.6 °F 35.9 °F 42.8 °F 93% 29.11 in 9.0 mi WSW 23.0 mph 29.9 mph N/A Rain Light Rain
10:25 PM 42.8 °F 34.8 °F 41.0 °F 93% 29.11 in 9.0 mi WSW 17.3 mph 24.2 mph N/A   Overcast
11:00 PM 42.8 °F 34.0 °F 41.0 °F 93% 29.11 in 9.0 mi WSW 20.7 mph 26.5 mph N/A   Overcast
11:01 PM 42.8 °F 34.3 °F 41.0 °F 93% 29.11 in 9.0 mi WSW 19.6 mph 26.5 mph N/A   Overcast
11:37 PM 42.8 °F 32.1 °F 39.2 °F 87% 29.13 in 9.0 mi WSW 31.1 mph 36.8 mph N/A   Overcast